Year,Month,Day,Hour,Minute,Value (Times are PST for temperature in C)
2013,04,24,00,00,8.10
2013,04,24,00,01,8.10
2013,04,24,00,02,8.10
2013,04,24,00,03,8.00
2013,04,24,00,04,8.00
2013,04,24,00,05,8.00
2013,04,24,00,06,7.90
2013,04,24,00,07,7.90
2013,04,24,00,08,7.80
2013,04,24,00,09,7.80
2013,04,24,00,10,7.80
2013,04,24,00,11,7.80
2013,04,24,00,12,7.80
2013,04,24,00,13,7.80
2013,04,24,00,14,7.70
2013,04,24,00,15,7.70
2013,04,24,00,16,7.70
2013,04,24,00,17,7.60
2013,04,24,00,18,7.60
2013,04,24,00,19,7.60
2013,04,24,00,20,7.60
2013,04,24,00,21,7.50
2013,04,24,00,22,7.50
2013,04,24,00,23,7.50
2013,04,24,00,24,7.50
2013,04,24,00,25,7.40
2013,04,24,00,26,7.40
2013,04,24,00,27,7.40
2013,04,24,00,28,7.40
2013,04,24,00,29,7.40
2013,04,24,00,30,7.30
2013,04,24,00,31,7.30
2013,04,24,00,32,7.30
2013,04,24,00,33,7.30
2013,04,24,00,34,7.30
2013,04,24,00,35,7.30
2013,04,24,00,36,7.30
2013,04,24,00,37,7.30
2013,04,24,00,38,7.20
2013,04,24,00,39,7.20
2013,04,24,00,40,7.20
2013,04,24,00,41,7.10
2013,04,24,00,42,7.10
2013,04,24,00,43,7.10
2013,04,24,00,44,7.10
2013,04,24,00,45,7.00
2013,04,24,00,46,7.00
2013,04,24,00,47,7.00
2013,04,24,00,48,7.00
2013,04,24,00,49,7.00
2013,04,24,00,50,7.00
2013,04,24,00,51,7.00
2013,04,24,00,52,7.00
2013,04,24,00,53,7.00
2013,04,24,00,54,6.90
2013,04,24,00,55,6.90
2013,04,24,00,56,6.90
2013,04,24,00,57,6.90
2013,04,24,00,58,6.90
2013,04,24,00,59,6.90
2013,04,24,01,00,6.90
2013,04,24,01,01,6.90
2013,04,24,01,02,6.80
2013,04,24,01,03,6.80
2013,04,24,01,04,6.80
2013,04,24,01,05,6.80
2013,04,24,01,06,6.80
2013,04,24,01,07,6.80
2013,04,24,01,08,6.80
2013,04,24,01,09,6.80
2013,04,24,01,10,6.80
2013,04,24,01,11,6.70
2013,04,24,01,12,6.70
2013,04,24,01,13,6.70
2013,04,24,01,14,6.70
2013,04,24,01,15,6.70
2013,04,24,01,16,6.60
2013,04,24,01,17,6.60
2013,04,24,01,18,6.60
2013,04,24,01,19,6.60
2013,04,24,01,20,6.60
2013,04,24,01,21,6.60
2013,04,24,01,22,6.60
2013,04,24,01,23,6.60
2013,04,24,01,24,6.60
2013,04,24,01,25,6.60
2013,04,24,01,26,6.60
2013,04,24,01,27,6.40
2013,04,24,01,28,6.40
2013,04,24,01,29,6.40
2013,04,24,01,30,6.40
2013,04,24,01,31,6.40
2013,04,24,01,32,6.40
2013,04,24,01,33,6.40
2013,04,24,01,34,6.40
2013,04,24,01,35,6.40
2013,04,24,01,36,6.30
2013,04,24,01,37,6.30
2013,04,24,01,38,6.30
2013,04,24,01,39,6.30
2013,04,24,01,40,6.20
2013,04,24,01,41,6.20
2013,04,24,01,42,6.20
2013,04,24,01,43,6.20
2013,04,24,01,44,6.20
2013,04,24,01,45,6.20
2013,04,24,01,46,6.20
2013,04,24,01,47,6.10
2013,04,24,01,48,6.10
2013,04,24,01,49,6.10
2013,04,24,01,50,6.00
2013,04,24,01,51,6.00
2013,04,24,01,52,6.00
2013,04,24,01,53,6.00
2013,04,24,01,54,5.90
2013,04,24,01,55,5.90
2013,04,24,01,56,5.90
2013,04,24,01,57,5.80
2013,04,24,01,58,5.80
2013,04,24,01,59,5.80
2013,04,24,02,00,5.80
2013,04,24,02,01,5.70
2013,04,24,02,02,5.70
2013,04,24,02,03,5.70
2013,04,24,02,04,5.70
2013,04,24,02,05,5.70
2013,04,24,02,06,5.70
2013,04,24,02,07,5.70
2013,04,24,02,08,5.70
2013,04,24,02,09,5.70
2013,04,24,02,10,5.70
2013,04,24,02,11,5.60
2013,04,24,02,12,5.60
2013,04,24,02,13,5.60
2013,04,24,02,14,5.60
2013,04,24,02,15,5.60
2013,04,24,02,16,5.60
2013,04,24,02,17,5.50
2013,04,24,02,18,5.50
2013,04,24,02,19,5.50
2013,04,24,02,20,5.50
2013,04,24,02,21,5.50
2013,04,24,02,22,5.50
2013,04,24,02,23,5.50
2013,04,24,02,24,5.50
2013,04,24,02,25,5.40
2013,04,24,02,26,5.40
2013,04,24,02,27,5.40
2013,04,24,02,28,5.40
2013,04,24,02,29,5.30
2013,04,24,02,30,5.30
2013,04,24,02,31,5.30
2013,04,24,02,32,5.30
2013,04,24,02,33,5.30
2013,04,24,02,34,5.30
2013,04,24,02,35,5.30
2013,04,24,02,36,5.30
2013,04,24,02,37,5.30
2013,04,24,02,38,5.20
2013,04,24,02,39,5.20
2013,04,24,02,40,5.20
2013,04,24,02,41,5.10
2013,04,24,02,42,5.10
2013,04,24,02,43,5.10
2013,04,24,02,44,5.10
2013,04,24,02,45,5.10
2013,04,24,02,46,5.10
2013,04,24,02,47,5.10
2013,04,24,02,48,5.10
2013,04,24,02,49,5.10
2013,04,24,02,50,5.10
2013,04,24,02,51,5.10
2013,04,24,02,52,5.10
2013,04,24,02,53,5.10
2013,04,24,02,54,5.10
2013,04,24,02,55,4.90
2013,04,24,02,56,4.90
2013,04,24,02,57,4.90
2013,04,24,02,58,4.90
2013,04,24,02,59,4.90
2013,04,24,03,00,4.90
2013,04,24,03,01,4.90
2013,04,24,03,02,4.90
2013,04,24,03,03,4.90
2013,04,24,03,04,4.90
2013,04,24,03,05,4.90
2013,04,24,03,06,4.90
2013,04,24,03,07,4.90
2013,04,24,03,08,4.90
2013,04,24,03,09,4.90
2013,04,24,03,10,4.90
2013,04,24,03,11,4.90
2013,04,24,03,12,4.80
2013,04,24,03,13,4.80
2013,04,24,03,14,4.80
2013,04,24,03,15,4.80
2013,04,24,03,16,4.80
2013,04,24,03,17,4.80
2013,04,24,03,18,4.70
2013,04,24,03,19,4.70
2013,04,24,03,20,4.70
2013,04,24,03,21,4.70
2013,04,24,03,22,4.60
2013,04,24,03,23,4.60
2013,04,24,03,24,4.60
2013,04,24,03,25,4.60
2013,04,24,03,26,4.60
2013,04,24,03,27,4.60
2013,04,24,03,28,4.60
2013,04,24,03,29,4.60
2013,04,24,03,30,4.60
2013,04,24,03,31,4.50
2013,04,24,03,32,4.50
2013,04,24,03,33,4.50
2013,04,24,03,34,4.50
2013,04,24,03,35,4.50
2013,04,24,03,36,4.50
2013,04,24,03,37,4.50
2013,04,24,03,38,4.50
2013,04,24,03,39,4.50
2013,04,24,03,40,4.40
2013,04,24,03,41,4.40
2013,04,24,03,42,4.40
2013,04,24,03,43,4.40
2013,04,24,03,44,4.40
2013,04,24,03,45,4.30
2013,04,24,03,46,4.30
2013,04,24,03,47,4.30
2013,04,24,03,48,4.30
2013,04,24,03,49,4.30
2013,04,24,03,50,4.30
2013,04,24,03,51,4.20
2013,04,24,03,52,4.20
2013,04,24,03,53,4.20
2013,04,24,03,54,4.20
2013,04,24,03,55,4.20
2013,04,24,03,56,4.20
2013,04,24,03,57,4.20
2013,04,24,03,58,4.20
2013,04,24,03,59,4.20
2013,04,24,04,00,4.20
2013,04,24,04,01,4.20
2013,04,24,04,02,4.20
2013,04,24,04,03,4.20
2013,04,24,04,04,4.20
2013,04,24,04,05,4.20
2013,04,24,04,06,4.20
2013,04,24,04,07,4.20
2013,04,24,04,08,4.20
2013,04,24,06,23,2.90
2013,04,24,06,24,2.90
2013,04,24,06,25,2.90
2013,04,24,06,26,2.90
2013,04,24,06,27,2.90
2013,04,24,06,28,2.90
2013,04,24,06,29,2.90
2013,04,24,06,30,2.90
2013,04,24,06,31,2.90
2013,04,24,06,32,2.90
2013,04,24,06,33,2.90
2013,04,24,06,34,2.90
2013,04,24,06,35,2.90
2013,04,24,06,36,2.90
2013,04,24,06,37,2.90
2013,04,24,06,38,2.90
2013,04,24,06,39,2.90
2013,04,24,06,40,2.80
2013,04,24,06,41,2.80
2013,04,24,06,42,2.80
2013,04,24,06,43,2.80
2013,04,24,06,44,2.80
2013,04,24,06,45,2.80
2013,04,24,06,46,2.70
2013,04,24,06,47,2.70
2013,04,24,06,48,2.70
2013,04,24,06,49,2.70
2013,04,24,06,50,2.70
2013,04,24,06,51,2.70
2013,04,24,06,52,2.70
2013,04,24,06,53,2.70
2013,04,24,06,54,2.80
2013,04,24,06,55,2.80
2013,04,24,06,56,2.80
2013,04,24,06,57,2.80
2013,04,24,06,58,2.80
2013,04,24,06,59,2.80
2013,04,24,07,00,2.80
2013,04,24,07,01,2.90
2013,04,24,07,02,2.90
2013,04,24,07,03,2.90
2013,04,24,07,04,2.90
2013,04,24,07,05,3.10
2013,04,24,07,06,3.10
2013,04,24,07,07,3.10
2013,04,24,07,08,3.10
2013,04,24,07,09,3.10
2013,04,24,07,10,3.20
2013,04,24,07,11,3.20
2013,04,24,07,12,3.20
2013,04,24,07,13,3.20
2013,04,24,07,14,3.20
2013,04,24,07,15,3.30
2013,04,24,07,16,3.30
2013,04,24,07,17,3.30
2013,04,24,07,18,3.30
2013,04,24,07,19,3.30
2013,04,24,07,20,3.30
2013,04,24,07,21,3.30
2013,04,24,07,22,3.40
2013,04,24,07,23,3.40
2013,04,24,07,24,3.40
2013,04,24,07,25,3.40
2013,04,24,07,26,3.50
2013,04,24,07,27,3.60
2013,04,24,07,28,3.70
2013,04,24,07,29,3.80
2013,04,24,07,30,3.80
2013,04,24,07,31,3.80
2013,04,24,07,32,3.80
2013,04,24,07,33,3.80
2013,04,24,07,34,3.80
2013,04,24,07,35,3.80
2013,04,24,07,36,3.90
2013,04,24,07,37,3.90
2013,04,24,07,38,4.00
2013,04,24,07,39,4.10
2013,04,24,07,40,4.10
2013,04,24,07,41,4.20
2013,04,24,07,42,4.20
2013,04,24,07,43,4.30
2013,04,24,07,44,4.40
2013,04,24,07,45,4.40
2013,04,24,07,46,4.40
2013,04,24,07,47,4.50
2013,04,24,07,48,4.50
2013,04,24,07,49,4.50
2013,04,24,07,50,4.60
2013,04,24,07,51,4.60
2013,04,24,07,52,4.60
2013,04,24,07,53,4.60
2013,04,24,07,54,4.60
2013,04,24,07,55,4.70
2013,04,24,07,56,4.70
2013,04,24,07,57,4.70
2013,04,24,07,58,4.80
2013,04,24,07,59,4.80
2013,04,24,08,00,4.90
2013,04,24,08,01,4.90
2013,04,24,08,02,4.90
2013,04,24,08,03,5.10
2013,04,24,08,04,5.10
2013,04,24,08,05,5.20
2013,04,24,08,06,5.20
2013,04,24,08,07,5.30
2013,04,24,08,08,5.30
2013,04,24,08,09,5.30
2013,04,24,08,10,5.40
2013,04,24,08,11,5.40
2013,04,24,08,12,5.50
2013,04,24,08,13,5.60
2013,04,24,08,14,5.60
2013,04,24,08,15,5.60
2013,04,24,08,16,5.70
2013,04,24,08,17,5.70
2013,04,24,08,18,5.70
2013,04,24,08,19,5.80
2013,04,24,08,20,5.80
2013,04,24,08,21,5.90
2013,04,24,08,22,5.90
2013,04,24,08,23,6.00
2013,04,24,08,24,6.00
2013,04,24,08,25,6.00
2013,04,24,08,26,6.00
2013,04,24,08,27,6.10
2013,04,24,08,28,6.10
2013,04,24,08,29,6.20
2013,04,24,08,30,6.20
2013,04,24,08,31,6.20
2013,04,24,08,32,6.30
2013,04,24,08,33,6.30
2013,04,24,08,34,6.40
2013,04,24,08,35,6.40
2013,04,24,08,36,6.40
2013,04,24,08,37,6.40
2013,04,24,08,38,6.60
2013,04,24,08,39,6.60
2013,04,24,08,40,6.60
2013,04,24,08,41,6.60
2013,04,24,08,42,6.70
2013,04,24,08,43,6.70
2013,04,24,08,44,6.80
2013,04,24,08,45,6.80
2013,04,24,08,46,6.80
2013,04,24,08,47,6.90
2013,04,24,08,48,7.00
2013,04,24,08,49,7.00
2013,04,24,08,50,7.10
2013,04,24,08,51,7.10
2013,04,24,08,52,7.10
2013,04,24,08,53,7.10
2013,04,24,08,54,7.10
2013,04,24,08,55,7.10
2013,04,24,08,56,7.10
2013,04,24,08,57,7.10
2013,04,24,08,58,7.10
2013,04,24,08,59,7.10
2013,04,24,09,00,7.10
2013,04,24,09,01,7.10
2013,04,24,09,02,7.20
2013,04,24,09,03,7.20
2013,04,24,09,04,7.20
2013,04,24,09,05,7.20
2013,04,24,09,06,7.20
2013,04,24,09,07,7.20
2013,04,24,09,08,7.20
2013,04,24,09,09,7.20
2013,04,24,09,10,7.30
2013,04,24,09,11,7.30
2013,04,24,09,12,7.30
2013,04,24,09,13,7.30
2013,04,24,09,14,7.40
2013,04,24,09,15,7.50
2013,04,24,09,16,7.60
2013,04,24,09,17,7.60
2013,04,24,09,18,7.70
2013,04,24,09,19,7.80
2013,04,24,09,20,7.80
2013,04,24,09,21,7.80
2013,04,24,09,22,7.80
2013,04,24,09,23,7.90
2013,04,24,09,24,7.90
2013,04,24,09,25,7.90
2013,04,24,09,26,7.90
2013,04,24,09,27,7.90
2013,04,24,09,28,7.90
2013,04,24,09,29,8.00
2013,04,24,09,30,8.10
2013,04,24,09,31,8.10
2013,04,24,09,32,8.20
2013,04,24,09,33,8.20
2013,04,24,09,34,8.30
2013,04,24,09,35,8.30
2013,04,24,09,36,8.40
2013,04,24,09,37,8.60
2013,04,24,09,38,8.70
2013,04,24,09,39,8.70
2013,04,24,09,40,8.70
2013,04,24,09,41,8.80
2013,04,24,09,42,8.80
2013,04,24,09,43,8.90
2013,04,24,09,44,8.80
2013,04,24,09,45,8.90
2013,04,24,09,46,8.90
2013,04,24,09,47,8.90
2013,04,24,09,48,9.00
2013,04,24,09,49,9.10
2013,04,24,09,50,9.20
2013,04,24,09,51,9.30
2013,04,24,09,52,9.40
2013,04,24,09,53,9.40
2013,04,24,09,54,9.50
2013,04,24,09,55,9.60
2013,04,24,09,56,9.70
2013,04,24,09,57,9.70
2013,04,24,09,58,9.70
2013,04,24,09,59,9.70
2013,04,24,10,00,9.80
2013,04,24,10,01,9.80
2013,04,24,10,02,9.90
2013,04,24,10,03,9.80
2013,04,24,10,04,9.80
2013,04,24,10,05,9.80
2013,04,24,10,06,9.90
2013,04,24,10,07,9.90
2013,04,24,10,08,9.90
2013,04,24,10,09,9.90
2013,04,24,10,10,10.10
2013,04,24,10,11,10.10
2013,04,24,10,12,10.10
2013,04,24,10,13,10.20
2013,04,24,10,14,10.20
2013,04,24,10,15,10.20
2013,04,24,10,16,10.30
2013,04,24,10,17,10.30
2013,04,24,10,18,10.30
2013,04,24,10,19,10.30
2013,04,24,10,20,10.30
2013,04,24,10,21,10.30
2013,04,24,10,22,10.40
2013,04,24,10,23,10.40
2013,04,24,10,24,10.40
2013,04,24,10,25,10.40
2013,04,24,10,26,10.40
2013,04,24,10,27,10.40
2013,04,24,10,28,10.60
2013,04,24,10,29,10.60
2013,04,24,10,30,10.60
2013,04,24,10,31,10.70
2013,04,24,10,32,10.70
2013,04,24,10,33,10.80
2013,04,24,10,34,10.90
2013,04,24,10,35,10.90
2013,04,24,10,36,11.10
2013,04,24,10,37,11.10
2013,04,24,10,38,11.30
2013,04,24,10,39,11.40
2013,04,24,10,40,11.60
2013,04,24,10,41,11.70
2013,04,24,10,42,11.80
2013,04,24,10,43,11.90
2013,04,24,10,44,12.00
2013,04,24,10,45,12.10
2013,04,24,10,46,12.30
2013,04,24,10,47,12.30
2013,04,24,10,48,12.40
2013,04,24,10,49,12.50
2013,04,24,10,50,12.60
2013,04,24,10,51,12.60
2013,04,24,10,52,12.60
2013,04,24,10,53,12.70
2013,04,24,10,54,12.70
2013,04,24,10,55,12.80
2013,04,24,10,56,12.70
2013,04,24,10,57,12.70
2013,04,24,10,58,12.70
2013,04,24,10,59,12.80
2013,04,24,11,00,12.80
2013,04,24,11,01,12.90
2013,04,24,11,02,12.90
2013,04,24,11,03,12.90
2013,04,24,11,04,13.00
2013,04,24,11,05,13.10
2013,04,24,11,06,13.20
2013,04,24,11,07,13.30
2013,04,24,11,08,13.30
2013,04,24,11,09,13.40
2013,04,24,11,10,13.60
2013,04,24,11,11,13.70
2013,04,24,11,12,13.80
2013,04,24,11,13,13.90
2013,04,24,11,14,14.00
2013,04,24,11,15,14.00
2013,04,24,11,16,14.00
2013,04,24,11,17,14.10
2013,04,24,11,18,14.10
2013,04,24,11,19,14.10
2013,04,24,11,20,14.20
2013,04,24,11,21,14.20
2013,04,24,11,22,14.20
2013,04,24,11,23,14.20
2013,04,24,11,24,14.30
2013,04,24,11,25,14.30
2013,04,24,11,26,14.20
2013,04,24,11,27,14.20
2013,04,24,11,28,14.20
2013,04,24,11,29,14.20
2013,04,24,11,30,14.20
2013,04,24,11,31,14.30
2013,04,24,11,32,14.40
2013,04,24,11,33,14.50
2013,04,24,11,34,14.60
2013,04,24,11,35,14.60
2013,04,24,11,36,14.70
2013,04,24,11,37,14.80
2013,04,24,11,38,14.80
2013,04,24,11,39,14.80
2013,04,24,11,40,14.80
2013,04,24,11,41,14.70
2013,04,24,11,42,14.60
2013,04,24,11,43,14.60
2013,04,24,11,44,14.70
2013,04,24,11,45,14.70
2013,04,24,11,46,14.70
2013,04,24,11,47,14.80
2013,04,24,11,48,14.80
2013,04,24,11,49,14.80
2013,04,24,11,50,14.80
2013,04,24,11,51,14.90
2013,04,24,11,52,14.90
2013,04,24,11,53,15.00
2013,04,24,11,54,15.00
2013,04,24,11,55,15.00
2013,04,24,11,56,14.90
2013,04,24,11,57,14.90
2013,04,24,11,58,14.90
2013,04,24,11,59,14.90
2013,04,24,12,00,15.00
2013,04,24,12,01,15.10
2013,04,24,12,02,15.20
2013,04,24,12,03,15.30
2013,04,24,12,04,15.30
2013,04,24,12,05,15.40
2013,04,24,12,06,15.60
2013,04,24,12,07,15.50
2013,04,24,12,08,15.50
2013,04,24,12,09,15.60
2013,04,24,12,10,15.60
2013,04,24,12,11,15.70
2013,04,24,12,12,15.80
2013,04,24,12,13,15.80
2013,04,24,12,14,16.10
2013,04,24,12,15,16.10
2013,04,24,12,16,16.30
2013,04,24,12,17,16.40
2013,04,24,12,18,16.70
2013,04,24,12,19,16.70
2013,04,24,12,20,16.90
2013,04,24,12,21,16.90
2013,04,24,12,22,16.90
2013,04,24,12,23,17.00
2013,04,24,12,24,17.00
2013,04,24,12,25,17.00
2013,04,24,12,26,17.00
2013,04,24,12,27,17.00
2013,04,24,12,28,17.10
2013,04,24,12,29,17.10
2013,04,24,12,30,17.20
2013,04,24,12,31,17.30
2013,04,24,12,32,17.30
2013,04,24,12,33,17.30
2013,04,24,12,34,17.20
2013,04,24,12,35,17.20
2013,04,24,12,36,17.20
2013,04,24,12,37,17.30
2013,04,24,12,38,17.30
2013,04,24,12,39,17.40
2013,04,24,12,40,17.60
2013,04,24,12,41,17.70
2013,04,24,12,42,17.80
2013,04,24,12,43,17.80
2013,04,24,12,44,17.90
2013,04,24,12,45,17.70
2013,04,24,12,46,17.70
2013,04,24,12,47,17.70
2013,04,24,12,48,17.70
2013,04,24,12,49,17.80
2013,04,24,12,50,17.80
2013,04,24,12,51,17.90
2013,04,24,12,52,17.90
2013,04,24,12,53,18.10
2013,04,24,12,54,18.10
2013,04,24,12,55,18.20
2013,04,24,12,56,18.30
2013,04,24,12,57,18.40
2013,04,24,12,58,18.40
2013,04,24,12,59,18.50
2013,04,24,13,00,18.60
2013,04,24,13,01,18.60
2013,04,24,13,02,18.50
2013,04,24,13,03,18.40
2013,04,24,13,04,18.50
2013,04,24,13,05,18.50
2013,04,24,13,06,18.50
2013,04,24,13,07,18.50
2013,04,24,13,08,18.50
2013,04,24,13,09,18.60
2013,04,24,13,10,18.60
2013,04,24,13,11,18.60
2013,04,24,13,12,18.80
2013,04,24,13,13,18.80
2013,04,24,13,14,18.90
2013,04,24,13,15,19.10
2013,04,24,13,16,19.10
2013,04,24,13,17,19.10
2013,04,24,13,18,19.10
2013,04,24,13,19,19.20
2013,04,24,13,20,19.20
2013,04,24,13,21,19.30
2013,04,24,13,22,19.30
2013,04,24,13,23,19.30
2013,04,24,13,24,19.30
2013,04,24,13,25,19.30
2013,04,24,13,26,19.30
2013,04,24,13,27,19.20
2013,04,24,13,28,19.10
2013,04,24,13,29,19.10
2013,04,24,13,30,19.20
2013,04,24,13,31,19.10
2013,04,24,13,32,19.10
2013,04,24,13,33,19.10
2013,04,24,13,34,19.10
2013,04,24,13,35,19.10
2013,04,24,13,36,19.30
2013,04,24,13,37,19.50
2013,04,24,13,38,19.60
2013,04,24,13,39,19.80
2013,04,24,13,40,19.90
2013,04,24,13,41,19.90
2013,04,24,13,42,20.10
2013,04,24,13,43,20.20
2013,04,24,13,44,20.20
2013,04,24,13,45,20.10
2013,04,24,13,46,20.10
2013,04,24,13,47,19.90
2013,04,24,13,48,19.90
2013,04,24,13,49,19.90
2013,04,24,13,50,19.90
2013,04,24,13,51,19.90
2013,04,24,13,52,19.90
2013,04,24,13,53,19.90
2013,04,24,13,54,19.90
2013,04,24,13,55,19.90
2013,04,24,13,56,19.90
2013,04,24,13,57,19.90
2013,04,24,13,58,19.90
2013,04,24,13,59,19.90
2013,04,24,14,00,20.20
2013,04,24,14,01,20.20
2013,04,24,14,02,20.20
2013,04,24,14,03,20.20
2013,04,24,14,04,20.40
2013,04,24,14,05,20.50
2013,04,24,14,06,20.50
2013,04,24,14,07,20.60
2013,04,24,14,08,20.60
2013,04,24,14,09,20.50
2013,04,24,14,10,20.40
2013,04,24,14,11,20.40
2013,04,24,14,12,20.50
2013,04,24,14,13,20.50
2013,04,24,14,14,20.50
2013,04,24,14,15,20.60
2013,04,24,14,16,20.60
2013,04,24,14,17,20.80
2013,04,24,14,18,20.80
2013,04,24,14,19,21.00
2013,04,24,14,20,21.10
2013,04,24,14,21,21.20
2013,04,24,14,22,21.30
2013,04,24,14,23,21.30
2013,04,24,14,24,21.40
2013,04,24,14,25,21.40
2013,04,24,14,26,21.40
2013,04,24,14,27,21.30
2013,04,24,14,28,21.10
2013,04,24,14,29,20.90
2013,04,24,14,30,20.80
2013,04,24,14,31,20.60
2013,04,24,14,32,20.50
2013,04,24,14,33,20.30
2013,04,24,14,34,20.30
2013,04,24,14,35,20.20
2013,04,24,14,36,20.20
2013,04,24,14,37,20.20
2013,04,24,14,38,20.20
2013,04,24,14,39,20.10
2013,04,24,14,40,20.10
2013,04,24,14,41,20.20
2013,04,24,14,42,20.20
2013,04,24,14,43,20.20
2013,04,24,14,44,20.30
2013,04,24,14,45,20.30
2013,04,24,14,46,20.20
2013,04,24,14,47,20.20
2013,04,24,14,48,20.20
2013,04,24,14,49,20.20
2013,04,24,14,50,20.20
2013,04,24,14,51,20.20
2013,04,24,14,52,20.20
2013,04,24,14,53,20.20
2013,04,24,14,54,20.20
2013,04,24,14,55,20.20
2013,04,24,14,56,20.30
2013,04,24,14,57,20.30
2013,04,24,14,58,20.30
2013,04,24,14,59,20.30
2013,04,24,15,00,20.30
2013,04,24,15,01,20.30
2013,04,24,15,02,20.20
2013,04,24,15,03,20.20
2013,04,24,15,04,20.20
2013,04,24,15,05,20.20
2013,04,24,15,06,20.30
2013,04,24,15,07,20.40
2013,04,24,15,08,20.50
2013,04,24,15,09,20.50
2013,04,24,15,10,20.60
2013,04,24,15,11,20.70
2013,04,24,15,12,20.70
2013,04,24,15,13,20.70
2013,04,24,15,14,20.70
2013,04,24,15,15,20.80
2013,04,24,15,16,20.80
2013,04,24,15,17,20.80
2013,04,24,15,18,20.70
2013,04,24,15,19,20.60
2013,04,24,15,20,20.50
2013,04,24,15,21,20.40
2013,04,24,15,22,20.40
2013,04,24,15,23,20.30
2013,04,24,15,24,20.30
2013,04,24,15,25,20.40
2013,04,24,15,26,20.50
2013,04,24,15,27,20.60
2013,04,24,15,28,20.70
2013,04,24,15,29,20.80
2013,04,24,15,30,20.90
2013,04,24,15,31,20.90
2013,04,24,15,32,21.00
2013,04,24,15,33,20.90
2013,04,24,15,34,20.90
2013,04,24,15,35,20.90
2013,04,24,15,36,20.90
2013,04,24,15,37,20.90
2013,04,24,15,38,20.80
2013,04,24,15,39,20.70
2013,04,24,15,40,20.70
2013,04,24,15,41,20.70
2013,04,24,15,42,20.70
2013,04,24,15,43,20.70
2013,04,24,15,44,20.70
2013,04,24,15,45,20.60
2013,04,24,15,46,20.60
2013,04,24,15,47,20.50
2013,04,24,15,48,20.50
2013,04,24,15,49,20.40
2013,04,24,15,50,20.40
2013,04,24,15,51,20.50
2013,04,24,15,52,20.50
2013,04,24,15,53,20.40
2013,04,24,15,54,20.30
2013,04,24,15,55,20.30
2013,04,24,15,56,20.30
2013,04,24,15,57,20.30
2013,04,24,15,58,20.30
2013,04,24,15,59,20.30
2013,04,24,16,00,20.40
2013,04,24,16,01,20.50
2013,04,24,16,02,20.50
2013,04,24,16,03,20.60
2013,04,24,16,04,20.60
2013,04,24,16,05,20.60
2013,04,24,16,06,20.70
2013,04,24,16,07,20.70
2013,04,24,16,08,20.60
2013,04,24,16,09,20.50
2013,04,24,16,10,20.50
2013,04,24,16,11,20.40
2013,04,24,16,12,20.30
2013,04,24,16,13,20.30
2013,04,24,16,14,20.30
2013,04,24,16,15,20.30
2013,04,24,16,16,20.30
2013,04,24,16,17,20.20
2013,04,24,16,18,20.20
2013,04,24,16,19,20.20
2013,04,24,16,20,20.20
2013,04,24,16,21,20.20
2013,04,24,16,22,20.10
2013,04,24,16,23,19.90
2013,04,24,16,24,19.90
2013,04,24,16,25,20.10
2013,04,24,16,26,20.10
2013,04,24,16,27,20.10
2013,04,24,16,28,20.10
2013,04,24,16,29,20.10
2013,04,24,16,30,19.90
2013,04,24,16,31,19.90
2013,04,24,16,32,19.90
2013,04,24,16,33,19.90
2013,04,24,16,34,19.90
2013,04,24,16,35,19.90
2013,04,24,16,36,20.10
2013,04,24,16,37,20.10
2013,04,24,16,38,20.10
2013,04,24,16,39,20.10
2013,04,24,16,40,20.10
2013,04,24,16,41,20.10
2013,04,24,16,42,20.20
2013,04,24,16,43,20.20
2013,04,24,16,44,20.20
2013,04,24,16,45,20.20
2013,04,24,16,46,20.20
2013,04,24,16,47,20.20
2013,04,24,16,48,20.20
2013,04,24,16,49,20.20
2013,04,24,16,50,20.30
2013,04,24,16,51,20.30
2013,04,24,16,52,20.30
2013,04,24,16,53,20.40
2013,04,24,16,54,20.40
2013,04,24,16,55,20.40
2013,04,24,16,56,20.40
2013,04,24,16,57,20.50
2013,04,24,16,58,20.40
2013,04,24,16,59,20.50
2013,04,24,17,00,20.50
2013,04,24,17,01,20.50
2013,04,24,17,02,20.40
2013,04,24,17,03,20.40
2013,04,24,17,04,20.40
2013,04,24,17,05,20.30
2013,04,24,17,06,20.30
2013,04,24,17,07,20.20
2013,04,24,17,08,20.20
2013,04,24,17,09,20.20
2013,04,24,17,10,20.10
2013,04,24,17,11,20.10
2013,04,24,17,12,19.90
2013,04,24,17,13,19.90
2013,04,24,17,14,19.90
2013,04,24,17,15,19.90
2013,04,24,17,16,19.90
2013,04,24,17,17,19.90
2013,04,24,17,18,19.90
2013,04,24,17,19,19.90
2013,04,24,17,20,19.90
2013,04,24,17,21,19.90
2013,04,24,17,22,19.90
2013,04,24,17,23,19.90
2013,04,24,17,24,19.90
2013,04,24,17,25,19.90
2013,04,24,17,26,19.90
2013,04,24,17,27,19.90
2013,04,24,17,28,19.90
2013,04,24,17,29,19.90
2013,04,24,17,30,19.80
2013,04,24,17,31,19.80
2013,04,24,17,32,19.80
2013,04,24,17,33,19.80
2013,04,24,17,34,19.80
2013,04,24,17,35,19.90
2013,04,24,17,36,19.90
2013,04,24,17,37,19.90
2013,04,24,17,38,19.80
2013,04,24,17,39,19.80
2013,04,24,17,40,19.80
2013,04,24,17,41,19.80
2013,04,24,17,42,19.90
2013,04,24,17,43,19.90
2013,04,24,17,44,19.90
2013,04,24,17,45,19.90
2013,04,24,17,46,19.90
2013,04,24,17,47,19.90
2013,04,24,17,48,19.90
2013,04,24,17,49,19.90
2013,04,24,17,50,19.90
2013,04,24,17,51,19.90
2013,04,24,17,52,19.90
2013,04,24,17,53,19.90
2013,04,24,17,54,19.90
2013,04,24,17,55,19.90
2013,04,24,17,56,19.90
2013,04,24,17,57,19.80
2013,04,24,17,58,19.80
2013,04,24,17,59,19.80
2013,04,24,18,00,19.80
2013,04,24,18,01,19.80
2013,04,24,18,02,19.80
2013,04,24,18,03,19.80
2013,04,24,18,04,19.70
2013,04,24,18,05,19.70
2013,04,24,18,06,19.70
2013,04,24,18,07,19.70
2013,04,24,18,08,19.70
2013,04,24,18,09,19.70
2013,04,24,18,10,19.70
2013,04,24,18,11,19.60
2013,04,24,18,12,19.60
2013,04,24,18,13,19.60
2013,04,24,18,14,19.60
2013,04,24,18,15,19.60
2013,04,24,18,16,19.60
2013,04,24,18,17,19.70
2013,04,24,18,18,19.70
2013,04,24,18,19,19.70
2013,04,24,18,20,19.80
2013,04,24,18,21,19.80
2013,04,24,18,22,19.80
2013,04,24,18,23,19.80
2013,04,24,18,24,19.90
2013,04,24,18,25,19.90
2013,04,24,18,26,19.90
2013,04,24,18,27,19.90
2013,04,24,18,28,19.90
2013,04,24,18,29,19.90
2013,04,24,18,30,20.10
2013,04,24,18,31,20.10
2013,04,24,18,32,20.10
2013,04,24,18,33,20.20
2013,04,24,18,34,20.10
2013,04,24,18,35,20.10
2013,04,24,18,36,20.10
2013,04,24,18,37,20.20
2013,04,24,18,38,20.10
2013,04,24,18,39,20.10
2013,04,24,18,40,19.90
2013,04,24,18,41,19.90
2013,04,24,18,42,19.90
2013,04,24,18,43,19.90
2013,04,24,18,44,19.90
2013,04,24,18,45,19.90
2013,04,24,18,46,19.70
2013,04,24,18,47,19.50
2013,04,24,18,48,19.40
2013,04,24,18,49,19.30
2013,04,24,18,50,19.10
2013,04,24,18,51,19.10
2013,04,24,18,52,19.10
2013,04,24,18,53,18.90
2013,04,24,18,54,18.80
2013,04,24,18,55,18.70
2013,04,24,18,56,18.60
2013,04,24,18,57,18.50
2013,04,24,18,58,18.40
2013,04,24,18,59,18.30
2013,04,24,19,00,18.30
2013,04,24,19,01,18.20
2013,04,24,19,02,18.20
2013,04,24,19,03,18.20
2013,04,24,19,04,18.10
2013,04,24,19,05,17.90
2013,04,24,19,06,17.90
2013,04,24,19,07,17.90
2013,04,24,19,08,17.90
2013,04,24,19,09,17.90
2013,04,24,19,10,17.90
2013,04,24,19,11,17.90
2013,04,24,19,12,17.90
2013,04,24,19,13,17.90
2013,04,24,19,14,17.90
2013,04,24,19,15,17.90
2013,04,24,19,16,17.90
2013,04,24,19,17,17.90
2013,04,24,19,18,17.90
2013,04,24,19,19,17.90
2013,04,24,19,20,17.90
2013,04,24,19,21,17.90
2013,04,24,19,22,17.80
2013,04,24,19,23,17.80
2013,04,24,19,24,17.80
2013,04,24,19,25,17.70
2013,04,24,19,26,17.60
2013,04,24,19,27,17.60
2013,04,24,19,28,17.60
2013,04,24,19,29,17.50
2013,04,24,19,30,17.50
2013,04,24,19,31,17.40
2013,04,24,19,32,17.30
2013,04,24,19,33,17.30
2013,04,24,19,34,17.30
2013,04,24,19,35,17.30
2013,04,24,19,36,17.30
2013,04,24,19,37,17.30
2013,04,24,19,38,17.20
2013,04,24,19,39,17.20
2013,04,24,19,40,17.20
2013,04,24,19,41,17.10
2013,04,24,19,42,17.10
2013,04,24,19,43,17.10
2013,04,24,19,44,17.10
2013,04,24,19,45,17.10
2013,04,24,19,46,17.10
2013,04,24,19,47,17.20
2013,04,24,19,48,17.20
2013,04,24,19,49,17.10
2013,04,24,19,50,17.10
2013,04,24,19,51,17.10
2013,04,24,19,52,17.10
2013,04,24,19,53,17.00
2013,04,24,19,54,16.90